Location: Del Oro Observatory
(38.3044°N, 104.8119°W)
Time: 10:00:36
(UTC-06:00)

Cosmos 1602 Rocket - Visible Passes

Search period start: 23 June 2018 00:00
Search period end: 03 July 2018 00:00
Orbit: 605 x 633 km, 82.5° (Epoch: 22 June)

Date Brightness Start Highest point End Pass type
(mag) Time Alt. Az. Time Alt. Az. Time Alt. Az.
25 Jun 6.1 21:04:46 10° SW 21:08:31 26° WNW 21:12:17 10° NNW visible
26 Jun 6.7 21:23:31 10° WSW 21:25:58 14° WNW 21:28:25 10° NW visible
30 Jun 6.9 20:54:48 10° WSW 20:57:06 14° WNW 20:59:24 10° NW visible
